Simultaneous Nadir Overpasses (SNOs) Predictions

Prediction of SNOs between GOES-17 and NOAA-19 Satellite Orbit:

Table of predicted SNOs for the next 14.0 days since TLE Epoch: 6/13/2025
Index Date Time (GOES-17) GOES-17 Lat,Lon NOAA-19 Lat,Lon Distance(km) Time Diff (sec)
1 06/14/2025 16:35:19 0.01,-104.44 -0.66,-101.40 345.91 80
2 06/17/2025 04:53:56 -0.01,-104.37 -0.38,-105.85 168.82 80
3 06/18/2025 04:38:38 -0.01,-104.37 0.32,-102.78 181.34 80
4 06/20/2025 16:57:12 0.01,-104.43 0.62,-107.22 317.39 80
5 06/21/2025 16:47:13 0.01,-104.43 -0.07,-104.15 32.57 80
6 06/22/2025 16:34:35 0.00,-104.43 -0.76,-101.08 382.40 80
7 06/24/2025 05:05:49 0.00,-104.37 -0.96,-108.59 481.23 80
8 06/25/2025 04:53:11 0.00,-104.36 -0.24,-105.52 131.54 80
9 06/26/2025 04:37:51 0.01,-104.36 0.42,-102.44 218.30 80
